[[{"header":{"parameterUnit":"m.s-1","parameterCategory":1,"la1":30.2991,"la2":30.254,"lo1":-89.0895,"lo2":-89.0444,"dy":0.0017,"dx":0.0017,"nx":28,"ny":28,"refTime":"2025-04-18T21:00:00:Z","depth":0,"parameterNumber":2,"parameterNumberName":"U-component_of_WINDS"},"data":[0,0,0,0,0,0,0,0,0,0,0,0,0,0,0,0,0,0,0,0,0,0,0,0,0,0,0,0,0,0,0,0,0,0,0,0,0,0,0,0,0,0,0,0,0,0,0,0,0,0,0,0,0,0,0,0,0,0,-4.7898,-4.7899,0,-4.8002,-4.8003,-4.8004,-4.8005,-4.8004,-4.8002,-4.8001,-4.8106,-4.8109,-4.8113,0,0,0,0,0,0,0,0,0,0,0,0,0,-4.7703,-4.7707,-4.7898,-4.79,-4.7901,-4.8001,-4.8003,-4.8004,-4.8005,-4.8004,-4.8002,-4.8,-4.8104,-4.8109,-4.8114,0,0,0,0,0,0,0,0,0,0,0,0,0,-4.7795,-4.7708,-4.7898,-4.7913,-4.7916,-4.8001,-4.8003,-4.8005,-4.8005,-4.8004,-4.8002,-4.8,-4.8103,-4.8109,-4.8114,-4.8191,0,0,-4.8133,-4.8135,0,0,0,0,0,0,0,0,-4.779,-4.7802,-4.791,-4.7913,-4.7915,-4.7988,-4.7972,-4.8067,-4.8006,-4.7971,-4.8001,-4.7999,-4.8068,-4.8077,-4.81,-4.8196,-4.82,-4.8133,-4.8137,-4.814,-4.8141,0,0,0,0,0,0,0,-4.7784,-4.7798,-4.7939,-4.7911,-4.7915,-4.7916,-4.7927,-4.799,-4.8029,-4.7974,-4.7975,-4.7987,-4.8069,-4.8095,-4.8103,-4.8202,-4.8133,-4.8139,-4.8142,-4.8145,-4.8368,-4.837,0,0,0,0,0,0,-4.7774,-4.7793,-4.7936,-4.7942,-4.7847,-4.7921,-4.7933,-4.7967,-4.8029,-4.8036,-4.7988,-4.7987,-4.8085,-4.8096,-4.8107,-4.82,-4.814,-4.8145,-4.8149,-4.8365,-4.8368,-4.8371,0,0,0,0,0,0,-4.777,-4.7787,-4.7932,-4.7868,-4.7886,-4.7926,-4.7964,-4.797,-4.7995,-4.804,-4.8047,-4.8007,-4.8084,-4.8098,-4.8171,-4.8204,-4.8148,-4.8153,-4.8363,-4.8366,-4.837,-4.8388,0,0,0,0,0,0,-4.7764,-4.7785,-4.7814,-4.7868,-4.789,-4.7993,-4.7966,-4.7973,-4.8006,-4.8004,-4.8059,-4.8066,-4.8084,-4.8162,-4.8177,-4.8211,-4.8158,-4.836,-4.8364,-4.8368,-4.8385,-4.8392,-4.8398,0,0,0,0,0,-4.7757,-4.7814,-4.7815,-4.7833,-4.7926,-4.7995,-4.8007,-4.8027,-4.8009,-4.8038,-4.8067,-4.8064,-4.8199,-4.8169,-4.8186,-4.8223,-4.8358,-4.8363,-4.8368,-4.8382,-4.839,-4.8398,0,0,0,0,0,0,-4.7761,-4.7821,-4.7823,-4.7899,-4.7942,-4.7995,-4.8032,-4.8035,-4.8083,-4.808,-4.8102,-4.8115,-4.8187,-4.8213,-4.8178,-4.8302,-4.8276,-4.8285,-4.8281,-4.829,-4.8296,-4.8287,-4.8163,0,0,0,0,0,-4.7771,-4.7822,-4.7872,-4.7935,-4.7956,-4.7991,-4.8021,-4.8034,-4.8078,-4.8096,-4.813,-4.8174,-4.8227,-4.826,-4.8311,-4.8391,-4.8402,-4.8425,-4.8431,-4.8437,-4.8443,-4.8488,-4.8498,-4.8388,-4.8388,-4.8388,0,0,-4.7791,-4.7831,-4.7861,-4.7936,-4.7971,-4.8023,-4.8006,-4.8061,-4.81,-4.8104,-4.8174,-4.8202,-4.8253,-4.8329,-4.8365,-4.8353,-4.8477,-4.8443,-4.8447,-4.845,-4.8494,-4.8505,-4.8514,-4.8392,-4.8391,-4.839,0,0,-4.7854,-4.789,-4.7946,-4.7982,-4.8035,-4.8059,-4.8073,-4.8127,-4.8145,-4.8217,-4.8221,-4.8269,-4.8359,-4.8395,-4.8425,-4.8508,-4.8507,-4.8525,-4.8558,-4.8602,-4.861,-4.8618,-4.8647,-4.8657,-4.8532,-4.8532,-4.8532,0,-4.7872,-4.795,-4.7974,-4.8031,-4.8064,-4.8073,-4.8131,-4.8165,-4.8232,-4.8255,-4.8242,-4.8357,-4.8391,-4.8477,-4.8498,-4.8522,-4.8539,-4.8516,-4.8607,-4.8615,-4.8623,-4.8651,-4.8661,-4.8533,-4.8533,-4.8533,-4.8533,0,-4.797,-4.8025,-4.8064,-4.813,-4.8169,-4.8225,-4.8258,-4.8295,-4.8306,-4.8331,-4.8405,-4.8449,-4.8509,-4.8531,-4.8541,-4.8619,-4.861,-4.8603,-4.8577,-4.8635,-4.8661,-4.8672,-4.8535,-4.8535,-4.8534,-4.8534,0,0,-4.8032,-4.8114,-4.8128,-4.8159,-4.8221,-4.8264,-4.8323,-4.8383,-4.8414,-4.8462,-4.8511,-4.859,-4.8584,-4.8619,-4.8634,-4.8673,-4.8736,-4.866,-4.8662,-4.8671,-4.8825,-4.8828,-4.884,-4.8738,-4.874,-4.8742,-4.882,0,-4.81,-4.8203,-4.8229,-4.8318,-4.8369,-4.8382,-4.8434,-4.8478,-4.8505,-4.8553,-4.8584,-4.8638,-4.8627,-4.8648,-4.8688,-4.8719,-4.8766,-4.8715,-4.8783,-4.8785,-4.8766,-4.8854,-4.8856,-4.8927,-4.883,-4.8832,-4.8834,0,-4.8191,-4.8242,-4.8337,-4.8395,-4.8418,-4.8463,-4.8522,-4.8569,-4.862,-4.8638,-4.8679,-4.8691,-4.8754,-4.873,-4.8817,-4.8781,-4.8812,-4.8833,-4.8836,-4.884,-4.881,-4.8858,-4.8951,-4.896,-4.885,-4.8849,-4.8848,0,-4.8225,-4.8318,-4.8387,-4.8413,-4.8483,-4.8515,-4.8546,-4.8596,-4.8632,-4.8684,-4.8708,-4.8767,-4.8798,-4.8844,-4.8873,-4.8852,-4.8958,-4.8936,-4.8974,-4.8973,-4.8991,-4.8989,-4.9088,-4.9017,-4.9017,-4.9016,-4.9016,0,-4.8296,-4.8353,-4.8403,-4.8445,-4.851,-4.8541,-4.8604,-4.8636,-4.8681,-4.873,-4.8746,-4.8792,-4.8828,-4.888,-4.8904,-4.8972,-4.8987,-4.9003,-4.9007,-4.8999,-4.8997,-4.9016,-4.9011,-4.9019,-4.9019,-4.9018,-4.9018,0,-4.8342,-4.8378,-4.8454,-4.8516,-4.8533,-4.8578,-4.8631,-4.8673,-4.8703,-4.8765,-4.8782,-4.8828,-4.889,-4.8925,-4.9002,-4.9018,-4.9094,-4.9098,-4.9076,-4.9078,-4.9113,-4.9108,-4.9225,-4.9242,-4.9162,-4.9163,-4.9163,0,-4.8383,-4.8427,-4.8495,-4.853,-4.8561,-4.8616,-4.8654,-4.8688,-4.8726,-4.8791,-4.8825,-4.8888,-4.894,-4.9038,-4.9079,-4.9139,-4.9143,-4.918,-4.9152,-4.9143,-4.9141,-4.9137,-4.9142,-4.9183,-4.9184,-4.9185,-4.9185,0,-4.8452,-4.8469,-4.8522,-4.8583,-4.8627,-4.8676,-4.8725,-4.8753,-4.8795,-4.8838,-4.8902,-4.8942,-4.9023,-4.9085,-4.915,-4.9182,-4.9191,-4.9195,-4.9207,-4.9197,-4.9181,-4.9189,-4.9086,-4.9191,-4.919,-4.919,-4.9189,-4.9189,-4.8495,-4.8536,-4.8591,-4.865,-4.8691,-4.8738,-4.8781,-4.8818,-4.8871,-4.8939,-4.8958,-4.9025,-4.9079,-4.9167,-4.9202,-4.9255,-4.9249,-4.9266,-4.9269,-4.9272,-4.9273,-4.9176,-4.9268,-4.9268,-4.9267,-4.9267,-4.9267,0,-4.8563,-4.86,-4.8655,-4.8724,-4.8772,-4.8779,-4.8835,-4.8874,-4.8933,-4.8983,-4.9035,-4.911,-4.9172,-4.922,-4.9284,-4.9318,-4.9324,-4.9333,-4.9329,-4.9337,-4.9276,-4.9258,-4.9327,-4.9327,-4.9327,-4.9327,-4.9327,-4.9327,-4.8603,-4.8673,-4.8697,-4.8788,-4.8825,-4.8891,-4.8923,-4.8966,-4.9007,-4.909,-4.9142,-4.9173,-4.9224,-4.9292,-4.935,-4.9363,-4.9384,-4.9393,-4.9406,-4.9347,-4.9341,-4.9334,-4.9318,-4.9398,-4.9398,-4.9462,-4.9463,-4.9463]},{"header":{"parameterUnit":"m.s-1","parameterCategory":1,"la1":30.2991,"la2":30.254,"lo1":-89.0895,"lo2":-89.0444,"dy":0.0017,"dx":0.0017,"nx":28,"ny":28,"refTime":"2025-04-18T21:00:00:Z","depth":0,"parameterNumber":3,"parameterNumberName":"V-component_of_WINDS"},"data":[0,0,0,0,0,0,0,0,0,0,0,0,0,0,0,0,0,0,0,0,0,0,0,0,0,0,0,0,0,0,0,0,0,0,0,0,0,0,0,0,0,0,0,0,0,0,0,0,0,0,0,0,0,0,0,0,0,0,3.7824,3.7825,0,3.7864,3.7864,3.7864,3.7912,3.7913,3.7914,3.7915,3.795,3.795,3.795,0,0,0,0,0,0,0,0,0,0,0,0,0,3.7787,3.7787,3.7824,3.7825,3.7825,3.7864,3.7864,3.7865,3.7912,3.7913,3.7914,3.7915,3.795,3.795,3.795,0,0,0,0,0,0,0,0,0,0,0,0,0,3.7812,3.7787,3.7824,3.7854,3.7857,3.7863,3.7864,3.7865,3.7912,3.7913,3.7914,3.7916,3.795,3.795,3.795,3.7929,0,0,3.7951,3.7951,0,0,0,0,0,0,0,0,3.7811,3.7813,3.7849,3.7852,3.7855,3.7884,3.7864,3.7886,3.7912,3.7891,3.7915,3.7916,3.7927,3.7929,3.7934,3.7931,3.7932,3.7951,3.7951,3.7952,3.7952,0,0,0,0,0,0,0,3.7809,3.7812,3.784,3.7849,3.7853,3.7864,3.7869,3.7868,3.7902,3.7893,3.7897,3.7901,3.7929,3.7933,3.7935,3.7933,3.7951,3.7951,3.7952,3.7952,3.7917,3.7915,0,0,0,0,0,0,3.7803,3.781,3.7838,3.7841,3.7836,3.7864,3.7869,3.7874,3.7902,3.7907,3.79,3.7903,3.7932,3.7934,3.7936,3.7915,3.7951,3.7952,3.7952,3.7918,3.7916,3.7915,0,0,0,0,0,0,3.7802,3.7805,3.7837,3.7827,3.7832,3.7863,3.7868,3.7874,3.7879,3.7907,3.7913,3.7899,3.7933,3.7936,3.7931,3.7917,3.7952,3.7952,3.7919,3.7917,3.7916,3.7872,0,0,0,0,0,0,3.7801,3.7805,3.7798,3.7826,3.7832,3.7832,3.7867,3.7874,3.788,3.7884,3.7908,3.7913,3.7934,3.7931,3.7932,3.7918,3.7952,3.792,3.7918,3.7916,3.7874,3.7869,3.7864,0,0,0,0,0,3.78,3.7782,3.7797,3.78,3.7824,3.7831,3.7834,3.7861,3.7878,3.7871,3.789,3.7912,3.7918,3.793,3.7931,3.7918,3.7921,3.7919,3.7916,3.7877,3.787,3.7864,0,0,0,0,0,0,3.7749,3.7786,3.7803,3.7795,3.781,3.784,3.7831,3.7852,3.7861,3.7865,3.7896,3.7901,3.7893,3.7905,3.7917,3.79,3.7923,3.7921,3.7893,3.7886,3.7881,3.7878,3.7953,0,0,0,0,0,3.7737,3.7741,3.7773,3.7762,3.7769,3.7799,3.7803,3.7823,3.7839,3.7845,3.7863,3.7876,3.7882,3.7884,3.789,3.7876,3.7883,3.7868,3.7862,3.7857,3.7855,3.785,3.7844,3.7907,3.7907,3.7907,0,0,3.7712,3.7733,3.7733,3.7753,3.7767,3.777,3.7804,3.7805,3.7807,3.7844,3.7843,3.7856,3.7873,3.7864,3.7861,3.7874,3.784,3.7854,3.785,3.7851,3.7847,3.7841,3.7836,3.7905,3.7905,3.7906,0,0,3.7668,3.7684,3.7678,3.7692,3.7714,3.7734,3.7733,3.776,3.7771,3.777,3.7798,3.7801,3.7809,3.782,3.7827,3.779,3.7811,3.7791,3.7763,3.7757,3.7752,3.7748,3.7736,3.7732,3.7788,3.7788,3.7788,0,3.7634,3.7641,3.7672,3.7673,3.7681,3.7717,3.7711,3.7722,3.7743,3.7748,3.7762,3.7775,3.7788,3.7784,3.7775,3.7779,3.7778,3.7789,3.7751,3.7747,3.7744,3.7733,3.7728,3.7786,3.7786,3.7786,3.7787,0,3.7599,3.7603,3.7595,3.7619,3.7625,3.7622,3.7652,3.7655,3.7675,3.7693,3.7692,3.771,3.7722,3.7722,3.7739,3.772,3.7727,3.7745,3.777,3.7735,3.7725,3.7721,3.7782,3.7783,3.7784,3.7785,0,0,3.7523,3.7565,3.7562,3.7574,3.7601,3.7605,3.7603,3.7617,3.762,3.7633,3.7633,3.764,3.7658,3.7666,3.7685,3.768,3.7652,3.77,3.77,3.7691,3.7633,3.762,3.7614,3.7666,3.7665,3.7664,3.7632,0,3.7486,3.7488,3.7517,3.751,3.7516,3.755,3.7549,3.7565,3.7583,3.7589,3.7607,3.7612,3.7635,3.764,3.7637,3.7656,3.7641,3.7658,3.7665,3.7665,3.7661,3.7609,3.7595,3.7564,3.7628,3.7628,3.7627,0,3.7442,3.7456,3.7451,3.7481,3.7484,3.7483,3.7499,3.7504,3.7523,3.7536,3.7546,3.7568,3.7569,3.7591,3.7592,3.7604,3.7608,3.7618,3.7617,3.762,3.7645,3.7611,3.7554,3.755,3.7621,3.7621,3.7622,0,3.739,3.7407,3.7408,3.7416,3.745,3.7449,3.7462,3.7483,3.749,3.7502,3.7507,3.7519,3.7526,3.7534,3.7559,3.7573,3.7557,3.7582,3.7568,3.7568,3.7564,3.7564,3.7508,3.7565,3.7565,3.7565,3.7565,0,3.7346,3.7341,3.7385,3.7385,3.7381,3.7414,3.7409,3.7426,3.7444,3.7447,3.7477,3.7479,3.7512,3.7517,3.7537,3.7535,3.7537,3.7548,3.7553,3.7546,3.7545,3.755,3.7553,3.7564,3.7564,3.7564,3.7564,0,3.7287,3.7316,3.7319,3.7351,3.7359,3.7355,3.7383,3.7384,3.7404,3.7408,3.741,3.7441,3.7449,3.7475,3.7489,3.7502,3.7495,3.7504,3.7489,3.7493,3.7479,3.748,3.7425,3.742,3.7478,3.7478,3.7477,0,3.7257,3.7256,3.7289,3.7295,3.7308,3.7316,3.7324,3.7356,3.7363,3.7385,3.7383,3.7395,3.7406,3.7417,3.7439,3.7451,3.7461,3.7441,3.7463,3.7456,3.7463,3.7463,3.7464,3.7437,3.7436,3.7435,3.7435,0,3.7203,3.7218,3.7229,3.7246,3.7256,3.727,3.7285,3.7288,3.7323,3.7329,3.734,3.7348,3.7364,3.7375,3.739,3.7403,3.7425,3.7428,3.7425,3.7418,3.741,3.7416,3.7478,3.7429,3.7429,3.743,3.743,3.743,3.7159,3.716,3.7184,3.7196,3.7212,3.7227,3.723,3.7251,3.7261,3.7278,3.7295,3.7304,3.7324,3.7347,3.7358,3.7365,3.7376,3.7372,3.7372,3.7371,3.7368,3.7409,3.7367,3.7367,3.7368,3.7368,3.7368,0,3.7107,3.7125,3.7136,3.7159,3.7168,3.719,3.7209,3.7215,3.7223,3.724,3.7251,3.7264,3.7275,3.7299,3.7312,3.7312,3.7323,3.7315,3.7316,3.7318,3.7356,3.7358,3.7306,3.7306,3.7306,3.7306,3.7306,3.7306,3.7081,3.7085,3.7103,3.7114,3.7131,3.7142,3.7151,3.7165,3.7179,3.7192,3.7203,3.7219,3.7239,3.7254,3.7265,3.7272,3.7276,3.7265,3.7275,3.731,3.7316,3.7321,3.7323,3.7265,3.7265,3.7237,3.7237,3.7237]}]]